Weather History for Billings, MT

Change the Weather History Date:

Wednesday, December 12, 2012

  Actual Average Record
Temperature  
Mean Temperature 35 °F 26 °F  
Max Temperature 39 °F 35 °F 57 °F (1988)
Min Temperature 30 °F 18 °F -11 °F (2000)
Degree Days  
Heating Degree Days 30 39  
Month to date heating degree days 347 448  
Since 1 July heating degree days 1729 2076  
Cooling Degree Days 0 0  
Month to date cooling degree days 0 0  
Year to date cooling degree days 958 636  
Moisture  
Dew Point 28 °F    
Average Humidity 74    
Maximum Humidity 100    
Minimum Humidity 48    
Precipitation  
Precipitation 0.02 in 0.02 in 0.29 in (1958)
Month to date precipitation 0.09 0.21  
Year to date precipitation 6.95 13.37  
Snow  
Snow T in 0.30 in 4.70 in (1946)
Month to date snowfall 0.9 3.1  
Since 1 July snowfall 12.5 14.8  
Snow Depth 0.00 in    
Sea Level Pressure  
Sea Level Pressure 29.70 in    
Wind  
Wind Speed 7 mph (North)    
Max Wind Speed 20 mph    
Max Gust Speed 23 mph    
Visibility 10 miles    
Events Rain , Snow    
T = Trace of Precipitation, MM = Missing Value Source: NWS Daily Summary

Daily Weather History Graph

Daily Weather History Graph

Search for Another Location

Airport:

Trip Planner

Search our weather history database for the weather conditions in past years. The results will help you decide how hot, cold, wet, or windy it might be!

Date:

Astronomy

Dec. 12, 2012 Rise Set
Actual Time 7:46 AM MST 4:29 PM MST
Civil Twilight 7:12 AM MST 5:04 PM MST
Nautical Twilight 6:34 AM MST 5:41 PM MST
Astronomical Twilight 5:58 AM MST 6:18 PM MST
Moon 6:53 AM MST (12/12) 4:10 PM MST (12/12)
Length of Visible Light 9h 51m
Length of Day
8h 43m
Waning Crescent, 0% of the Moon is Illuminated
Dec 12
Waning Crescent
Dec 13
New
Dec 19
First Quarter
Dec 28
Full
Jan 4
Last Quarter

Hourly Weather History & Observations

Time (MST) Temp. Windchill Dew Point Humidity Pressure Visibility Wind Dir Wind Speed Gust Speed Precip Events Conditions
12:53 AM 37.0 °F 28.9 °F 19.9 °F 50% 29.57 in 10.0 mi WSW 12.7 mph - N/A   Overcast
1:53 AM 37.0 °F 29.3 °F 19.9 °F 50% 29.57 in 10.0 mi SW 11.5 mph - N/A   Overcast
2:53 AM 36.0 °F 31.1 °F 19.9 °F 52% 29.59 in 10.0 mi NNE 5.8 mph - N/A   Overcast
3:53 AM 36.0 °F 30.3 °F 19.9 °F 52% 29.58 in 10.0 mi ENE 6.9 mph - N/A   Overcast
4:53 AM 37.0 °F 34.5 °F 19.9 °F 50% 29.60 in 10.0 mi SE 3.5 mph - N/A   Overcast
5:53 AM 35.1 °F 30.1 °F 21.0 °F 57% 29.60 in 10.0 mi NE 5.8 mph - N/A   Overcast
6:53 AM 35.1 °F 28.6 °F 21.0 °F 57% 29.61 in 10.0 mi North 8.1 mph - N/A   Overcast
7:53 AM 35.1 °F 29.3 °F 21.9 °F 59% 29.63 in 10.0 mi NNW 6.9 mph - N/A   Overcast
8:53 AM 35.1 °F 31.0 °F 21.9 °F 59% 29.62 in 10.0 mi NE 4.6 mph - 0.00 in   Overcast
9:53 AM 35.1 °F - 21.9 °F 59% 29.64 in 10.0 mi Calm Calm - N/A   Overcast
10:53 AM 37.0 °F 31.0 °F 23.0 °F 57% 29.64 in 10.0 mi North 8.1 mph - N/A   Overcast
11:53 AM 37.0 °F 30.4 °F 26.1 °F 65% 29.62 in 10.0 mi NE 9.2 mph - N/A   Overcast
12:53 PM 36.0 °F 31.1 °F 30.0 °F 79% 29.63 in 10.0 mi NNE 5.8 mph - N/A   Overcast
1:53 PM 37.0 °F 30.4 °F 30.9 °F 79% 29.63 in 10.0 mi NNE 9.2 mph - N/A   Overcast
2:22 PM 37.4 °F 30.8 °F 32.0 °F 81% 29.60 in 10.0 mi NNE 9.2 mph - N/A   Overcast
2:53 PM 37.0 °F 31.0 °F 32.0 °F 82% 29.67 in 10.0 mi NNE 8.1 mph - N/A   Overcast
3:53 PM 36.0 °F 31.1 °F 33.1 °F 89% 29.71 in 10.0 mi North 5.8 mph - 0.00 in Rain Light Rain
4:17 PM 35.6 °F 31.7 °F 33.8 °F 93% 29.66 in 9.0 mi NNE 4.6 mph - 0.01 in Rain Light Rain
4:40 PM 33.8 °F 27.7 °F 32.0 °F 93% 29.67 in 10.0 mi North 6.9 mph - 0.01 in   Overcast
4:53 PM 34.0 °F 28.8 °F 33.1 °F 96% 29.74 in 10.0 mi North 5.8 mph - 0.01 in   Overcast
5:06 PM 33.8 °F 27.7 °F 33.8 °F 100% 29.70 in 10.0 mi NW 6.9 mph - N/A   Mostly Cloudy
5:53 PM 33.1 °F 26.1 °F 32.0 °F 96% 29.81 in 8.0 mi West 8.1 mph - 0.01 in Rain , Snow Light Rain
5:59 PM 33.8 °F 27.7 °F 32.0 °F 93% 29.73 in 10.0 mi West 6.9 mph - 0.00 in Rain , Snow Light Rain
6:53 PM 34.0 °F 26.0 °F 32.0 °F 92% 29.83 in 10.0 mi WSW 10.4 mph - 0.00 in   Overcast
7:25 PM 33.8 °F 26.4 °F 32.0 °F 93% 29.76 in 10.0 mi SW 9.2 mph - N/A   Mostly Cloudy
7:53 PM 33.1 °F 26.1 °F 32.0 °F 96% 29.84 in 10.0 mi WSW 8.1 mph - N/A   Mostly Cloudy
8:53 PM 33.1 °F 25.5 °F 30.9 °F 92% 29.87 in 10.0 mi WNW 9.2 mph - N/A   Mostly Cloudy
9:33 PM 32.0 °F 28.7 °F 30.2 °F 93% 29.80 in 10.0 mi NE 3.5 mph - N/A   Mostly Cloudy
9:53 PM 30.9 °F - 30.0 °F 96% 29.88 in 10.0 mi Calm Calm - N/A   Mostly Cloudy
10:53 PM 30.9 °F 27.5 °F 30.0 °F 96% 29.88 in 10.0 mi NNE 3.5 mph - N/A   Scattered Clouds
11:14 PM 30.2 °F - 30.2 °F 100% 29.82 in 10.0 mi Calm Calm - N/A   Scattered Clouds
11:33 PM 32.0 °F 26.4 °F 30.2 °F 93% 29.83 in 10.0 mi SSW 5.8 mph - N/A   Mostly Cloudy
11:53 PM 30.9 °F 27.5 °F 30.9 °F 100% 29.90 in 6.0 mi South 3.5 mph - N/A   Mostly Cloudy